STARLINK-11168 [DTC] (60183 NORAD) Tracking and Keplerian Element Data

This shows tracking and keplerian element data for the satellite.

Feedback or suggestion? Click here.




ElementValue
Catalog60183
NameSTARLINK-11168 [DTC]
Epoch Orbit1717
Epoch Day286.82331402
Epoch Year2024
RAAN169.4266
Inclination53.1588
Eccentricity8.46E-05
Argument of Perigee97.0355
Mean Anonmoly263.0759
Mean Motion15.69758727
Decay Rate6.502E-05
L11 60183U 24124A 24286.82331402 .00006502 00000+0 58367-4 0 9991
L22 60183 53.1588 169.4266 0000846 97.0355 263.0759 15.69758727 17176



Live tracking and technical data element details for STARLINK-11168 [DTC] (NORAD 60183). STARLINK-11168 [DTC] can be tracked NOW for your location showing map with azimuth and elevation plus other details from your city location.







IsCatalogInMostPopularTable: catalog: 60183, numindb: 13
Update: records affected: 1



GetName: 60183 STARLINK-11168 [DTC]

Hit Count: updated at: Thu, 23 Jan 2025 13:24:42 GMT